Weather History for KAEG - April, 2014

Change the Weather History Date:

Sunday, April 6, 2014

  Actual Average Record
Temperature  
Mean Temperature 42 °F -  
Max Temperature 59 °F - - ()
Min Temperature 24 °F - - ()
Degree Days  
Heating Degree Days 24    
Moisture  
Dew Point 20 °F    
Average Humidity 49    
Maximum Humidity 80    
Minimum Humidity 15    
Precipitation  
Precipitation 0.00 in - - ()
Sea Level Pressure  
Sea Level Pressure 29.94 in    
Wind  
Wind Speed 7 mph (NW)    
Max Wind Speed 25 mph    
Max Gust Speed 36 mph    
Visibility 10 miles    
Events      
T = Trace of Precipitation, MM = Missing Value Source: NWS Daily Summary

Daily Weather History Graph

Daily Weather History Graph

Search for Another Location

Airport or City:

Trip Planner

Search our weather history database for the weather conditions in past years. The results will help you decide how hot, cold, wet, or windy it might be!

Date:

Astronomy

Apr. 06, 2014 Rise Set
Actual Time 6:46 AM MDT 7:32 PM MDT
Civil Twilight 6:21 AM MDT 7:58 PM MDT
Nautical Twilight 5:50 AM MDT 8:28 PM MDT
Astronomical Twilight 5:19 AM MDT 9:00 PM MDT
Moon 11:57 AM MDT (4/6) 1:23 AM MDT (4/6)
Length of Visible Light 13h 37m
Length of Day
12h 45m
Waxing Crescent, 44% of the Moon is Illuminated
Apr 6
Waxing Crescent
Apr 7
First Quarter
Apr 15
Full
Apr 22
Last Quarter
Apr 29
New

Hourly Weather History & Observations

Time (MDT) Temp. Windchill Dew Point Humidity Pressure Visibility Wind Dir Wind Speed Gust Speed Precip Events Conditions
12:15 AM 34.5 °F - 23.2 °F 63% 29.94 in 10.0 mi Calm Calm - N/A   Clear
12:35 AM 32.2 °F 25.8 °F 20.5 °F 62% 29.94 in 10.0 mi WSW 6.9 mph - N/A   Clear
12:55 AM 34.9 °F 29.0 °F 23.7 °F 64% 29.94 in 10.0 mi West 6.9 mph - N/A   Clear
1:15 AM 32.9 °F 26.7 °F 23.0 °F 67% 29.94 in 10.0 mi WNW 6.9 mph - N/A   Scattered Clouds
1:35 AM 33.6 °F 29.4 °F 23.7 °F 67% 29.94 in 10.0 mi West 4.6 mph - N/A   Overcast
1:55 AM 32.5 °F 27.1 °F 22.6 °F 67% 29.93 in 10.0 mi WNW 5.8 mph - N/A   Scattered Clouds
2:15 AM 33.1 °F - 24.1 °F 70% 29.93 in 10.0 mi Calm Calm - N/A   Clear
2:35 AM 33.6 °F 30.6 °F 23.9 °F 68% 29.93 in 10.0 mi ESE 3.5 mph - N/A   Clear
2:55 AM 33.6 °F - 25.0 °F 71% 29.93 in 10.0 mi Calm Calm - N/A   Clear
3:15 AM 29.5 °F - 21.9 °F 73% 29.92 in 10.0 mi Calm Calm - N/A   Clear
3:35 AM 32.5 °F - 23.9 °F 70% 29.92 in 10.0 mi Calm Calm - N/A   Clear
3:55 AM 30.6 °F - 23.0 °F 74% 29.92 in 10.0 mi Calm Calm - N/A   Clear
4:15 AM 28.4 °F 24.6 °F 21.7 °F 76% 29.92 in 10.0 mi SW 3.5 mph - N/A   Clear
4:35 AM 29.3 °F - 22.3 °F 75% 29.92 in 10.0 mi Calm Calm - N/A   Clear
5:50 AM 28.4 °F 23.3 °F 19.4 °F 69% 29.93 in 10.0 mi Variable 4.6 mph - N/A   Clear
6:50 AM 24.8 °F - 19.4 °F 80% 29.94 in 10.0 mi Calm Calm - N/A   Scattered Clouds
7:50 AM 37.4 °F - 24.8 °F 60% 29.95 in 10.0 mi Calm Calm - N/A   Scattered Clouds
8:50 AM 41.0 °F - 23.0 °F 49% 29.96 in 10.0 mi Calm Calm - N/A   Scattered Clouds
9:50 AM 46.4 °F 42.9 °F 24.8 °F 43% 29.96 in 10.0 mi WNW 6.9 mph - N/A   Partly Cloudy
10:50 AM 51.8 °F - 24.8 °F 35% 29.96 in 10.0 mi NW 18.4 mph - N/A   Scattered Clouds
11:50 AM 53.6 °F - 21.2 °F 28% 29.93 in 10.0 mi NW 20.7 mph 26.5 mph N/A   Scattered Clouds
12:50 PM 55.4 °F - 19.4 °F 25% 29.90 in 10.0 mi WNW 17.3 mph 32.2 mph N/A   Mostly Cloudy
2:50 PM 59.0 °F - 15.8 °F 19% 29.87 in 10.0 mi NW 21.9 mph 31.1 mph N/A   Mostly Cloudy
3:49 PM 59.0 °F - 14.0 °F 17% 29.87 in 10.0 mi NW 23.0 mph 35.7 mph N/A   Mostly Cloudy
4:48 PM 57.2 °F - 10.4 °F 16% 29.87 in 10.0 mi NW 25.3 mph 35.7 mph N/A   Mostly Cloudy
5:50 PM 55.4 °F - 8.6 °F 15% 29.88 in 10.0 mi WNW 19.6 mph 28.8 mph N/A   Mostly Cloudy
6:50 PM 51.8 °F - 12.2 °F 21% 29.90 in 10.0 mi NW 16.1 mph 24.2 mph N/A   Mostly Cloudy
7:48 PM 51.8 °F - 10.4 °F 19% 29.91 in 10.0 mi WNW 19.6 mph 29.9 mph N/A   Mostly Cloudy
8:49 PM 48.2 °F - 10.4 °F 22% 29.94 in 10.0 mi WNW 16.1 mph - N/A   Clear
9:15 PM 47.7 °F - 12.6 °F 24% 29.95 in 10.0 mi NW 17.3 mph 23.0 mph N/A   Clear
9:35 PM 47.3 °F - 13.1 °F 25% 29.96 in 10.0 mi NW 15.0 mph - N/A   Clear
9:55 PM 46.4 °F 40.7 °F 12.7 °F 26% 29.96 in 10.0 mi NW 12.7 mph - N/A   Clear
10:15 PM 45.7 °F 40.2 °F 12.6 °F 26% 29.96 in 10.0 mi NW 11.5 mph - N/A   Scattered Clouds
10:35 PM 43.9 °F 38.8 °F 12.2 °F 28% 29.97 in 10.0 mi North 9.2 mph - N/A   Scattered Clouds
10:55 PM 40.6 °F 35.4 °F 22.3 °F 48% 29.97 in 10.0 mi North 8.1 mph - N/A   Clear
11:15 PM 39.6 °F 33.0 °F 27.7 °F 62% 29.98 in 10.0 mi North 10.4 mph - N/A   Clear
11:35 PM 39.2 °F 32.5 °F 27.3 °F 62% 29.99 in 10.0 mi North 10.4 mph - N/A   Clear
11:55 PM 38.5 °F 32.7 °F 27.9 °F 66% 30.00 in 10.0 mi North 8.1 mph - N/A   Clear